Miscellaneous Local Product
Issued by NWS Hastings, NE

Home | Current Version | Previous Version | Text Only | Print | Product List | Glossary On
Versions: 1 2 3 4 5 6 7 8 9 10 11 12 13 14 15 16 17 18 19 20 21 22 23 24 25 26 27 28 29 30 31 32 33 34 35 36 37 38 39 40 41 42 43 44 45 46 47 48 49 50
384
AXUS43 KGID 252002
MISGRI

GID CWA HOURLY WEATHER ROUNDUP
NATIONAL WEATHER SERVICE HASTINGS NE
300 PM CDT MON JUL 25 2016

NOTE: "FAIR" INDICATES FEW OR NO CLOUDS BELOW 12,000 FEET WITH NO
SIGNIFICANT WEATHER AND/OR OBSTRUCTIONS TO VISIBILITY.

...SOUTH CENTRAL NEBRASKA...

CITY           SKY/WX    TMP DP  RH WIND       PRES   REMARKS
GRAND ISLAND   SUNNY     85  62  46 SE9       30.12F
HASTINGS       SUNNY     85  62  46 S9G16     30.13F
KEARNEY        SUNNY     84  64  51 SE14      30.13F
ORD            SUNNY     85  57  38 SE13      30.10F
YORK           SUNNY     82  64  54 SE5       30.12F
AURORA         SUNNY     83  65  53 E8        30.12F
LEXINGTON      SUNNY     83  63  50 S12       30.13F
HOLDREGE       SUNNY     84  64  50 S10       30.13F
HEBRON         SUNNY     86  57  36 CALM      30.10F

...NEBRASKA PANHANDLE...

CITY           SKY/WX    TMP DP  RH WIND       PRES   REMARKS
CHADRON        SUNNY     91  54  28 S18       30.04F
ALLIANCE       SUNNY     85  58  39 SE18G28   30.12F
SCOTTSBLUFF    SUNNY     91  56  30 S16G24    30.09F
SIDNEY         SUNNY     87  59  38 S20G29    30.16F

...WESTERN AND NORTH CENTRAL NEBRASKA...

CITY           SKY/WX    TMP DP  RH WIND       PRES   REMARKS
VALENTINE      SUNNY     90  47  22 S16G29    30.08F
AINSWORTH      SUNNY     87  53  31 SE17G23   30.10F
ONEILL         SUNNY     88  49  26 S13G18    30.12F
BROKEN BOW     SUNNY     84  60  44 SE15G24   30.13F
IMPERIAL       SUNNY     88  58  36 SE16      30.12F
NORTH PLATTE   MOSUNNY   83  67  58 SE10      30.11F
MCCOOK         MOSUNNY   89  63  41 SE16G22   30.11F HX  90

...EASTERN NEBRASKA...

CITY           SKY/WX    TMP DP  RH WIND       PRES   REMARKS
NORFOLK        SUNNY     83  62  49 S6        30.11F
SO SIOUX CITY  SUNNY     87  63  44 SW3       30.09F
TEKAMAH        SUNNY     87  59  38 VRB5      30.09F
COLUMBUS       SUNNY     82  59  44 SE5       30.11F
ALBION         SUNNY     82  61  48 SE7       30.11F
OMAHA EPPLEY   MOSUNNY   87  65  47 N7        30.08F
OFFUTT AFB     SUNNY     86  66  50 VRB1      30.08F
MILLARD        SUNNY     85  65  49 CALM      30.08F
LINCOLN        SUNNY     88  57  34 E7        30.10F
NEBRASKA CITY  SUNNY     82  63  53 NE3       30.09F
BEATRICE       SUNNY     87  56  34 E5        30.08F
FALLS CITY     PTSUNNY   85  67  54 N9        30.05F

...NORTHERN KANSAS...

CITY           SKY/WX    TMP DP  RH WIND       PRES   REMARKS
GOODLAND       PTSUNNY   81  63  54 S17       30.17F
HILL CITY      MOSUNNY   85  67  54 SE8       30.11F
NORTON         PTCLDY    84  63  48 SE9       30.12F
SMITH CENTER   SUNNY     84  64  51 SE8       30.11F
BELOIT         MOSUNNY   81  70  69 N5        30.09F
HAYS           MOSUNNY   82  64  54 SE9       30.10F
RUSSELL        MOSUNNY   81  68  64 NE9       30.09F
CONCORDIA      SUNNY     81  68  64 N3        30.09F
SALINA         CLOUDY    85  69  58 N9        30.08F
TOPEKA         CLOUDY    80  71  74 VRB3      30.04R



USA.gov is the U.S. government's official web portal to all federal, state and local government web resources and services.